DELTA 1 DEB, 3126

Orbit data source: Space-Track

DELTA 1 DEB, 3126 is space debris in LEO originally from a launch on Thu, 11 Jan 1968 UTC launched from the Air Force Western Test Range (AFWTR). Debris objects in space refer to the collection of defunct objects orbiting the Earth. Examples of debris include non-operational satellites, rocket bodies, and fragments generated from explosions, collisions, or faulty payload assembly.

Loading next visibility...
Identifier
3126, 1968-002C
Orbit
LEO
Last TLE update
17 hours ago
Origin
Manufacturer
Unknown
Mission
Spacecraft
Bus & Motor
Unknown
Mass
Unknown
Launch date (UTC)
1968-01-11 (57 years ago)
Launch vehicle
Unknown
Launch site
Air Force Western Test Range (AFWTR)
Object type
Payload
Rocket body
Debris
Shape & HBR
Unknown
Radar Cross Section
Small (<0.1 m²)

Expand to show TLE details & history

TLE from 17 hours ago
0 DELTA 1 DEB
1 03126U 68002C   25181.67170602 -.00000067  00000-0  34034-4 0  9996
2 03126 106.0718 337.9891 0321733 358.7428  23.5295 12.82445878689225
Epoch: 2025-06-30T16:07Z
TLE epoch observation values (Epoch: 2025-06-30T16:07:15.4Z)
Latitude
22.84022°
Longitude
170.26311°
Altitude
1,107.829 km
Speed
7.407 km/s
True Right ascension
22h 04m 13s
True Declination
22° 43' 24"
Sunlit
Object was in daylight at epoch
Visualization orbit readout
Latitude
32.83084°
Longitude
8.89292°
Altitude
1,543.85 km
Speed
7.001 km/s
Apparent Right ascension
10h 26m 16s
Apparent Declination
1° 03' 01"
Sunlit
Object is in daylight
Visualization observer readout
Local Sidereal Time
21:14:22
Azimuth
333.701° NNW
Elevation
-45.862°
Doppler factor
1
Orbital elements
Apogee altitude
1,577.433 km
Perigee altitude
1,081.475 km
Semi-major axis
7,707.591 km
Eccentricity
0.03217
Inclination
106.0718°
RAAN
337.9891°
Arg. of periapsis
358.7428°
True anomaly
Unknown
Mean anomaly
23.5295°
Eccentric anomaly
Unknown
Mean motion
3.20749 °/min
Orbital period
112.24 mins
BSTAR
0.000034034
Loading maneuver chart data...
Loading SW <> Apogee altitude chart data...
Loading historical data...
Loading historical data...
Loading historical data...
Loading historical data...
Loading historical data...
Loading historical data...
Loading historical data...

DELTA 1 DEB Visibility forecast

Observer location: undefined°, undefined°

Span
Click to sort rows by Start time (UTC) header in descending order
Start Az.
Max El. time (UTC)
Max El. Az.
Max El.
End time (UTC)
End Az.
12 mins2025-07-01 10:49:04.174Z188.247° SSW2025-07-01 10:55:04.174Z259.63° W32.344°2025-07-01 11:01:04.174Z321.646° NNW
14 mins2025-07-01 22:35:04.174Z45.763° ENE2025-07-01 22:41:04.174Z99.546° ESE30.043°2025-07-01 22:49:04.174Z166.346° S
14 mins2025-07-02 00:25:04.174Z11.393° NNE2025-07-02 00:31:04.174Z301.842° NW40.586°2025-07-02 00:39:04.174Z225.034° WSW
7 mins2025-07-02 02:16:04.174Z343.601° N2025-07-02 02:19:04.174Z320.25° NNW15.139°2025-07-02 02:23:04.174Z290.514° WNW
11 mins2025-07-02 09:20:04.174Z126.385° SE2025-07-02 09:25:04.174Z49.615° ENE37.721°2025-07-02 09:31:04.174Z347.439° N
|